Regional Weather Roundup
Issued by NWS Cleveland, OH

Home | Current Version | Previous Version | Graphics & Text | Print | Product List | Glossary On
Versions: 1 2 3 4 5 6 7 8 9 10 11 12 13 14 15 16 17 18 19 20 21 22 23 24 25 26 27 28 29 30 31 32 33 34 35 36 37 38 39 40 41 42 43 44 45 46 47 48 49 50
000
ASUS41 KCLE 270112
RWRCLE
OHIO REGIONAL WEATHER ROUNDUP
NATIONAL WEATHER SERVICE WILMINGTON, OH
900 PM EDT SUN MAR 26 2017

NOTE: "FAIR" INDICATES FEW OR NO CLOUDS BELOW 12,000 FEET WITH NO
SIGNIFICANT WEATHER AND/OR OBSTRUCTIONS TO VISIBILITY.

OHZ001>008-015>018-024>027-034-035-043-044-270200-
   NORTHWEST OHIO

CITY           SKY/WX    TMP DP  RH WIND       PRES   REMARKS
DEFIANCE       LGT RAIN  53  51  93 S6        29.90R
FINDLAY        MOCLDY    55  51  86 S6        29.90S
TOLEDO EXPRESS LGT RAIN  52  52 100 E3        29.89F FOG
TOLEDO EXEC    LGT RAIN  53  52  96 W6        29.92R FOG
LIMA           CLOUDY    54  53  97 S7        29.91R
$$

OHZ009>014-019>023-028>033-038-089-270200-
   NORTHEAST OHIO

CITY           SKY/WX    TMP DP  RH WIND       PRES   REMARKS
CLE-HOPKINS    MOCLDY    58  52  80 S7        29.95S
CLE-LAKEFRONT  CLOUDY    57  54  89 SE8       29.92S
CUY CO. ARPT   PTCLDY    57  55  94 S9        29.94S
LORAIN-ELYRIA  FAIR      56  50  80 S8        29.93R
ASHTABULA      CLOUDY    55  53  93 SE12      29.96S
AKRON-CANTON   CLOUDY    58  53  84 S10       29.95R
WOOSTER        FAIR      52  50  93 SE5       29.95S
MANSFIELD      LGT RAIN  55  54  96 S8        29.94R
YOUNGSTOWN     MOCLDY    56  53  90 SE10      29.98S
$$

OHZ042-051>053-060>062-070>072-077>081-270200-
  SOUTHWEST OHIO

CITY           SKY/WX    TMP DP  RH WIND       PRES   REMARKS
CINC-COVINGTON MOCLDY    57  55  93 SW6       29.94R
CINC-LUNKEN    CLOUDY    58  32  37 SW6       29.95R
HAMILTON       MOCLDY    58  57  97 S3        29.94R
DAYTON         CLOUDY    58  54  86 S9        29.93R
WRIGHT-PAT AFB CLOUDY    58  58 100 S6        29.92S
DAYTON GENERAL CLOUDY    57  54  89 SW6       29.92S
WILMINGTON     LGT RAIN  55  54  96 S5        29.95R
$$

OHZ036-037-039>041-045>050-054>059-063>069-073>076-082>088-270200-
  CENTRAL AND SOUTHEAST OHIO

CITY           SKY/WX    TMP DP  RH WIND       PRES   REMARKS
COLUMBUS       LGT RAIN  55  54  96 W3        29.94S FOG
OSU AIRPORT    LGT RAIN  55  55 100 S7        29.94R
BOLTON FIELD   LGT RAIN  55  54  97 CALM      29.95F
RICKENBACK AFB LGT RAIN  57  57  99 NW6       29.94R
NEWARK         RAIN      59  54  83 SE8       29.93R
MARION         CLOUDY    57  54  89 S7        29.93S
LANCASTER      TSTM      59  54  83 W13G25    29.97R
ZANESVILLE     CLOUDY    57  53  86 S6        29.96R
NEW PHILLY     CLOUDY    57  52  83 SE5       29.97R
$$




USA.gov is the U.S. government's official web portal to all federal, state and local government web resources and services.